TINTED TURTLE TROT

Carolina Beach, NC

Race Results

5K

Sunday, Apr 2, 2017

Results are: Official

Participants 172
Finishers 149
Average Pace 11:37/mile
Average Time 00:36:04
 
 
Place Name Gender Gender Place Age Age Place Gun Time Pace
1 ERIC JELINSKI (# 1071) M 1 38 1st Overall 00:18:54.8 6:06/mile
2 STEVEN Dees (# 1030) M 2 37 2nd Overall 00:19:55.6 6:25/mile
3 BATES LANCASTER (# 1079) M 3 11 3rd Overall 00:21:22.0 6:53/mile
4 cian perry (# 1097) M 4 13 1 / 18 00:22:08.0 7:08/mile
5 CHRIS FISCHER (# 1042) M 5 38 1 / 23 00:23:11.5 7:28/mile
6 CHRISTINA Dees (# 1031) F 1 36 1st Overall 00:23:14.1 7:29/mile
7 JACE TURNER (# 1366) M 6 11 2 / 18 00:23:35.1 7:36/mile
8 Karen Baker (# 1001) F 2 39 2nd Overall 00:23:53.1 7:42/mile
9 BETH GENTZLER (# 1045) F 3 34 3rd Overall 00:24:15.7 7:49/mile
10 Kai Nau (# 1378) M 7 12 3 / 18 00:24:44.9 7:59/mile
11 Mia Medlin (# 1381) F 4 8 1 / 16 00:24:49.4 8:00/mile
12 Rakiya Monroe (# 1377) F 5 37 1 / 61 00:24:51.6 8:01/mile
13 OLIVIA FOWLER (# 1375) F 6 19 2 / 61 00:24:55.6 8:02/mile
14 ADAM UPCHURCH (# 1367) M 8 35 2 / 23 00:25:01.2 8:04/mile
15 Cadence Eder (# 1037) F 7 11 1 / 10 00:26:08.4 8:25/mile
16 Andrea Ray (# 1113) F 8 28 3 / 61 00:26:09.0 8:26/mile
17 SCOTT GRIFFIN (# 1351) M 9 39 3 / 23 00:27:07.8 8:45/mile
18 SYDNEY MOORE (# 1092) F 9 12 2 / 10 00:27:28.4 8:51/mile
19 VAN LAWLESS (# 1085) M 10 12 4 / 18 00:28:10.6 9:05/mile
20 Silas Jackson (# 1070) M 11 12 5 / 18 00:28:10.7 9:05/mile
    Page:     next >   last >>